Time,TemperatureF,DewpointF,PressureIn,WindDirection,WindDirectionDegrees,WindSpeedMPH,WindSpeedGustMPH,Humidity,HourlyPrecipIn,Conditions,Clouds,dailyrainin,SoftwareType,DateUTC
2017-10-24 00:00:00,64.9,53.3,30.18,North,351,5.0,11.0,66,0.00,,---,0.00,VWS V15.00,2017-10-24 05:00:00,
2017-10-24 00:05:00,64.9,52.9,30.18,NNE,29,6.0,13.0,65,0.00,,---,0.00,VWS V15.00,2017-10-24 05:05:00,
2017-10-24 00:10:00,65.2,52.7,30.18,North,5,8.0,8.0,64,0.00,,---,0.00,VWS V15.00,2017-10-24 05:10:00,
2017-10-24 00:15:00,65.2,52.3,30.19,NNE,27,9.0,14.0,63,0.00,,---,0.00,VWS V15.00,2017-10-24 05:15:00,
2017-10-24 00:20:00,65.1,52.2,30.18,NNW,341,9.0,9.0,63,0.00,,---,0.00,VWS V15.00,2017-10-24 05:20:00,
2017-10-24 00:25:00,64.9,52.5,30.19,NE,34,6.0,13.0,64,0.00,,---,0.00,VWS V15.00,2017-10-24 05:25:00,
2017-10-24 00:30:00,64.6,52.2,30.19,NNE,27,8.0,11.0,64,0.00,,---,0.00,VWS V15.00,2017-10-24 05:30:00,
2017-10-24 00:35:00,64.5,52.1,30.19,NNW,347,8.0,11.0,64,0.00,,---,0.00,VWS V15.00,2017-10-24 05:35:00,
2017-10-24 00:40:00,64.5,51.6,30.19,NNE,18,12.0,14.0,63,0.00,,---,0.00,VWS V15.00,2017-10-24 05:40:00,
2017-10-24 00:45:00,64.6,51.7,30.19,NE,37,6.0,14.0,63,0.00,,---,0.00,VWS V15.00,2017-10-24 05:45:00,
2017-10-24 00:50:00,64.6,51.3,30.20,NNW,348,6.0,11.0,62,0.00,,---,0.00,VWS V15.00,2017-10-24 05:50:00,
2017-10-24 00:55:00,64.7,51.4,30.20,NNE,22,8.0,16.0,62,0.00,,---,0.00,VWS V15.00,2017-10-24 05:55:00,
2017-10-24 01:01:00,64.6,51.3,30.20,North,349,9.0,13.0,62,0.00,,---,0.00,VWS V15.00,2017-10-24 06:01:00,
2017-10-24 01:06:00,64.5,51.2,30.20,NNW,329,6.0,13.0,62,0.00,,---,0.00,VWS V15.00,2017-10-24 06:06:00,
2017-10-24 01:11:00,64.3,51.0,30.20,NNE,22,12.0,13.0,62,0.00,,---,0.00,VWS V15.00,2017-10-24 06:11:00,
2017-10-24 01:16:00,64.2,50.9,30.20,NNE,18,3.0,13.0,62,0.00,,---,0.00,VWS V15.00,2017-10-24 06:16:00,
2017-10-24 01:21:00,64.0,50.7,30.21,North,5,5.0,7.0,62,0.00,,---,0.00,VWS V15.00,2017-10-24 06:21:00,
2017-10-24 01:26:00,63.9,50.6,30.21,North,359,7.0,12.0,62,0.00,,---,0.00,VWS V15.00,2017-10-24 06:26:00,
2017-10-24 01:31:00,63.7,50.5,30.21,NNW,335,2.0,3.0,62,0.00,,---,0.00,VWS V15.00,2017-10-24 06:31:00,
2017-10-24 01:36:00,63.2,50.8,30.21,NW,323,3.0,5.0,64,0.00,,---,0.00,VWS V15.00,2017-10-24 06:36:00,
2017-10-24 01:41:00,62.6,50.7,30.21,NNW,330,4.0,4.0,65,0.00,,---,0.00,VWS V15.00,2017-10-24 06:41:00,
2017-10-24 01:46:00,62.0,50.5,30.21,NW,323,2.0,4.0,66,0.00,,---,0.00,VWS V15.00,2017-10-24 06:46:00,
2017-10-24 01:51:00,61.7,50.6,30.21,NNW,329,3.0,5.0,67,0.00,,---,0.00,VWS V15.00,2017-10-24 06:51:00,
2017-10-24 01:56:00,61.4,50.4,30.21,NW,326,3.0,5.0,67,0.00,,---,0.00,VWS V15.00,2017-10-24 06:56:00,
2017-10-24 02:01:00,61.2,50.6,30.22,North,360,4.0,5.0,68,0.00,,---,0.00,VWS V15.00,2017-10-24 07:01:00,
2017-10-24 02:06:00,61.2,50.2,30.22,North,8,3.0,7.0,67,0.00,,---,0.00,VWS V15.00,2017-10-24 07:06:00,
2017-10-24 02:11:00,61.5,50.0,30.22,NNE,13,6.0,7.0,66,0.00,,---,0.00,VWS V15.00,2017-10-24 07:11:00,
2017-10-24 02:17:00,61.8,49.9,30.22,NW,323,4.0,8.0,65,0.00,,---,0.00,VWS V15.00,2017-10-24 07:17:00,
2017-10-24 02:22:00,61.9,49.6,30.22,NNE,25,8.0,8.0,64,0.00,,---,0.00,VWS V15.00,2017-10-24 07:22:00,
2017-10-24 02:27:00,62.3,49.6,30.22,North,352,7.0,9.0,63,0.00,,---,0.00,VWS V15.00,2017-10-24 07:27:00,
2017-10-24 02:32:00,62.5,49.8,30.23,NNW,345,4.0,8.0,63,0.00,,---,0.00,VWS V15.00,2017-10-24 07:32:00,
2017-10-24 02:37:00,62.6,49.4,30.23,NNE,25,9.0,9.0,62,0.00,,---,0.00,VWS V15.00,2017-10-24 07:37:00,
2017-10-24 02:42:00,62.8,49.2,30.24,NNE,23,8.0,12.0,61,0.00,,---,0.00,VWS V15.00,2017-10-24 07:42:00,
2017-10-24 02:47:00,63.1,49.0,30.24,NNE,33,8.0,15.0,60,0.00,,---,0.00,VWS V15.00,2017-10-24 07:47:00,
2017-10-24 02:52:00,63.0,48.9,30.24,NNE,18,9.0,14.0,60,0.00,,---,0.00,VWS V15.00,2017-10-24 07:52:00,
2017-10-24 02:57:00,62.9,48.8,30.24,NNE,32,7.0,16.0,60,0.00,,---,0.00,VWS V15.00,2017-10-24 07:57:00,
2017-10-24 03:02:00,62.6,48.5,30.24,NE,46,7.0,13.0,60,0.00,,---,0.00,VWS V15.00,2017-10-24 08:02:00,
2017-10-24 03:07:00,62.3,48.2,30.24,NNE,19,5.0,13.0,60,0.00,,---,0.00,VWS V15.00,2017-10-24 08:07:00,
2017-10-24 03:12:00,62.0,48.4,30.25,NNW,333,4.0,12.0,61,0.00,,---,0.00,VWS V15.00,2017-10-24 08:12:00,
2017-10-24 03:17:00,61.7,48.1,30.25,NNE,33,6.0,12.0,61,0.00,,---,0.00,VWS V15.00,2017-10-24 08:17:00,